Location: ??
(34.9170°N, 135.5016°E)
Time: 18:51:45
(UTC+00:00)

FENGYUN 3A - Pass Details

Date: 29 October 2020
Orbit: 824 x 836 km, 98.4° (Epoch: 30 November)

Event Time Altitude Azimuth Distance (km) Brightness Sun altitude
Rises 19:21:29 0° 14° (NNE) 3,390 7.0 -24.2°
Reaches altitude 10° 19:23:51 10° 16° (NNE) 2,453 6.3 -23.7°
Maximum altitude 19:29:18 75° 102° (ESE) 865 3.8 -22.6°
Drops below altitude 10° 19:34:42 10° 188° (S) 2,435 6.0 -21.5°
Sets 19:37:02 0° 190° (S) 3,363 6.8 -21.0°
